[[{"header":{"parameterUnit":"m.s-1","parameterCategory":2,"la1":30.2991,"la2":30.254,"lo1":-89.0895,"lo2":-89.0444,"dy":0.0017,"dx":0.0017,"nx":28,"ny":28,"refTime":"2024-06-24T03:00:00:Z","depth":"0","parameterNumber":2,"parameterNumberName":"U-component_of_CURRENTS"},"data":[0,0,0,0,0,0,0,0,0,0,0,0,0,0,0,0,0,0,0,0,0,0,0,0,0,0,0,0,0,0,0,0,0,0,0,0,0,0,0,0,0,0,0,0,0,0,0,0,0,0,0,0,0,0,0,0,0,0,-0.2964,-0.2964,0,-0.3014,-0.3014,-0.3014,-0.2928,-0.2926,-0.2923,-0.292,-0.2789,-0.2789,-0.2788,0,0,0,0,0,0,0,0,0,0,0,0,0,-0.2792,-0.2796,-0.2963,-0.2964,-0.2965,-0.3014,-0.3014,-0.3015,-0.2929,-0.2926,-0.2922,-0.2919,-0.279,-0.2789,-0.2788,0,0,0,0,0,0,0,0,0,0,0,0,0,-0.2855,-0.2797,-0.2963,-0.2929,-0.2927,-0.3013,-0.3014,-0.3015,-0.293,-0.2925,-0.2921,-0.2917,-0.279,-0.2789,-0.2787,-0.2862,0,0,-0.2783,-0.2783,0,0,0,0,0,0,0,0,-0.2852,-0.2862,-0.2934,-0.2932,-0.2929,-0.2962,-0.2906,-0.2955,-0.2931,-0.2927,-0.292,-0.2915,-0.2834,-0.2829,-0.2848,-0.2856,-0.285,-0.2783,-0.2782,-0.2782,-0.2781,0,0,0,0,0,0,0,-0.2848,-0.2859,-0.2982,-0.2935,-0.2932,-0.2911,-0.2915,-0.2915,-0.2899,-0.2927,-0.2921,-0.2931,-0.2831,-0.285,-0.2844,-0.2848,-0.2783,-0.2782,-0.2781,-0.2781,-0.2898,-0.2901,0,0,0,0,0,0,-0.2851,-0.2856,-0.298,-0.2983,-0.2881,-0.2918,-0.2922,-0.2954,-0.2902,-0.2893,-0.2934,-0.2927,-0.2854,-0.2846,-0.2839,-0.2891,-0.2782,-0.278,-0.278,-0.2894,-0.2899,-0.2903,0,0,0,0,0,0,-0.2847,-0.2862,-0.2978,-0.292,-0.2933,-0.2925,-0.2962,-0.2958,-0.2955,-0.291,-0.2895,-0.2933,-0.2851,-0.2841,-0.2851,-0.2885,-0.278,-0.2779,-0.2889,-0.2895,-0.2901,-0.3015,0,0,0,0,0,0,-0.2842,-0.2861,-0.2876,-0.2921,-0.2936,-0.302,-0.2966,-0.2962,-0.297,-0.2959,-0.2906,-0.2891,-0.2847,-0.2854,-0.2849,-0.2881,-0.2778,-0.2884,-0.2892,-0.2899,-0.3006,-0.3024,-0.3039,0,0,0,0,0,-0.2837,-0.2873,-0.2878,-0.2892,-0.2962,-0.3022,-0.3028,-0.3005,-0.2974,-0.2986,-0.2965,-0.2891,-0.2897,-0.2856,-0.285,-0.2882,-0.2881,-0.289,-0.2898,-0.2998,-0.302,-0.3038,0,0,0,0,0,0,-0.2785,-0.287,-0.2874,-0.2928,-0.2969,-0.3007,-0.3016,-0.3015,-0.3016,-0.2995,-0.2942,-0.2929,-0.295,-0.2921,-0.2877,-0.2946,-0.2878,-0.2886,-0.2956,-0.2976,-0.2992,-0.2963,-0.2776,0,0,0,0,0,-0.2794,-0.2848,-0.2912,-0.2949,-0.2975,-0.3001,-0.3019,-0.3017,-0.303,-0.3024,-0.2997,-0.2982,-0.2995,-0.2983,-0.2982,-0.3022,-0.2939,-0.3044,-0.3061,-0.3074,-0.3053,-0.301,-0.3018,-0.2932,-0.2932,-0.2932,0,0,-0.2774,-0.2834,-0.2855,-0.2943,-0.297,-0.3029,-0.3,-0.3037,-0.3077,-0.3012,-0.3042,-0.3034,-0.3021,-0.3063,-0.307,-0.3032,-0.3054,-0.3086,-0.3097,-0.3067,-0.302,-0.3027,-0.3034,-0.2938,-0.2937,-0.2936,0,0,-0.2779,-0.2831,-0.2877,-0.2935,-0.3,-0.3036,-0.305,-0.3101,-0.3107,-0.3156,-0.3129,-0.314,-0.3153,-0.3155,-0.3158,-0.327,-0.3145,-0.3284,-0.3333,-0.3294,-0.3298,-0.3301,-0.318,-0.3171,-0.3289,-0.3289,-0.3289,0,-0.2744,-0.2832,-0.2893,-0.2964,-0.3011,-0.3044,-0.3102,-0.3142,-0.3185,-0.3203,-0.3166,-0.321,-0.3193,-0.3248,-0.3293,-0.3299,-0.3231,-0.3251,-0.3308,-0.331,-0.3311,-0.3186,-0.3175,-0.3295,-0.3295,-0.3294,-0.3293,0,-0.2796,-0.2866,-0.2901,-0.3013,-0.3073,-0.3129,-0.3208,-0.3252,-0.3264,-0.3291,-0.3333,-0.3327,-0.334,-0.3362,-0.3358,-0.3394,-0.3325,-0.3331,-0.3241,-0.3325,-0.3189,-0.3175,-0.3305,-0.3302,-0.3301,-0.3299,0,0,-0.2696,-0.2898,-0.29,-0.2968,-0.3107,-0.3155,-0.3254,-0.3341,-0.3371,-0.3409,-0.3432,-0.3488,-0.3467,-0.3471,-0.3472,-0.3446,-0.3399,-0.3401,-0.3396,-0.3248,-0.3247,-0.3171,-0.3147,-0.3419,-0.3418,-0.3418,-0.3136,0,-0.2701,-0.2836,-0.2946,-0.3058,-0.313,-0.3234,-0.3314,-0.3397,-0.344,-0.3472,-0.3488,-0.3499,-0.3519,-0.3507,-0.3506,-0.3417,-0.3374,-0.3469,-0.3214,-0.3204,-0.3102,-0.3134,-0.2993,-0.273,-0.3121,-0.3119,-0.3117,0,-0.2689,-0.2796,-0.2907,-0.3089,-0.3126,-0.3194,-0.3313,-0.3392,-0.3477,-0.3503,-0.3542,-0.3541,-0.3535,-0.3524,-0.3405,-0.3465,-0.3372,-0.3292,-0.328,-0.3153,-0.3105,-0.2719,-0.2689,-0.2697,-0.3094,-0.3096,-0.3098,0,-0.2554,-0.2755,-0.284,-0.2905,-0.3112,-0.3165,-0.3257,-0.3371,-0.3418,-0.3493,-0.3492,-0.3521,-0.3454,-0.3405,-0.3286,-0.3334,-0.3098,-0.3137,-0.297,-0.2959,-0.2756,-0.273,-0.2672,-0.3043,-0.3044,-0.3045,-0.3045,0,-0.2506,-0.2567,-0.2778,-0.282,-0.29,-0.3075,-0.3135,-0.3235,-0.3335,-0.3355,-0.3471,-0.3427,-0.342,-0.3315,-0.3248,-0.3039,-0.3064,-0.2949,-0.2894,-0.2793,-0.2775,-0.2708,-0.2764,-0.3034,-0.3036,-0.3038,-0.304,0,-0.2326,-0.2474,-0.2566,-0.2773,-0.2831,-0.2864,-0.3042,-0.308,-0.3204,-0.3221,-0.3234,-0.3285,-0.3143,-0.311,-0.2943,-0.2919,-0.2715,-0.2697,-0.2544,-0.248,-0.2377,-0.2445,-0.2291,-0.2224,-0.2456,-0.2452,-0.2449,0,-0.226,-0.2286,-0.2461,-0.2493,-0.2577,-0.268,-0.2742,-0.2951,-0.3004,-0.31,-0.3074,-0.2992,-0.2874,-0.263,-0.2562,-0.24,-0.2492,-0.2233,-0.2339,-0.2331,-0.2365,-0.2441,-0.2403,-0.2078,-0.2072,-0.2068,-0.2064,0,-0.2105,-0.2138,-0.22,-0.2267,-0.2334,-0.2429,-0.2549,-0.2595,-0.2807,-0.2825,-0.2769,-0.2668,-0.2469,-0.2252,-0.213,-0.2044,-0.2208,-0.2134,-0.2169,-0.21,-0.2129,-0.205,-0.2264,-0.2023,-0.2027,-0.203,-0.2032,-0.2034,-0.1947,-0.1923,-0.1985,-0.2029,-0.2089,-0.2154,-0.2168,-0.2304,-0.2349,-0.2351,-0.2395,-0.2162,-0.2107,-0.1886,-0.1812,-0.1733,-0.1839,-0.1727,-0.1803,-0.1874,-0.1857,-0.1964,-0.1671,-0.1673,-0.1675,-0.1676,-0.1678,0,-0.1794,-0.177,-0.177,-0.1806,-0.1768,-0.1897,-0.2009,-0.1989,-0.196,-0.1937,-0.184,-0.1669,-0.1546,-0.1533,-0.1526,-0.1458,-0.1449,-0.1454,-0.1533,-0.1506,-0.1589,-0.1626,-0.1261,-0.1261,-0.1261,-0.1261,-0.1261,-0.1261,-0.1711,-0.1634,-0.1626,-0.1495,-0.1495,-0.1433,-0.1458,-0.1429,-0.1398,-0.122,-0.1058,-0.0964,-0.1092,-0.1482,-0.1485,-0.1405,-0.142,-0.1345,-0.143,-0.1525,-0.1558,-0.159,-0.1639,-0.1282,-0.1282,-0.1256,-0.1256,-0.1256]},{"header":{"parameterUnit":"m.s-1","parameterCategory":2,"la1":30.2991,"la2":30.254,"lo1":-89.0895,"lo2":-89.0444,"dy":0.0017,"dx":0.0017,"nx":28,"ny":28,"refTime":"2024-06-24T03:00:00:Z","depth":"0","parameterNumber":3,"parameterNumberName":"V-component_of_CURRENTS"},"data":[0,0,0,0,0,0,0,0,0,0,0,0,0,0,0,0,0,0,0,0,0,0,0,0,0,0,0,0,0,0,0,0,0,0,0,0,0,0,0,0,0,0,0,0,0,0,0,0,0,0,0,0,0,0,0,0,0,0,-0.1635,-0.1634,0,-0.1516,-0.1514,-0.1513,-0.1401,-0.14,-0.1399,-0.1398,-0.1105,-0.1098,-0.1092,0,0,0,0,0,0,0,0,0,0,0,0,0,-0.1608,-0.161,-0.1635,-0.1634,-0.1633,-0.1516,-0.1514,-0.1512,-0.1401,-0.14,-0.1399,-0.1397,-0.1107,-0.1099,-0.1091,0,0,0,0,0,0,0,0,0,0,0,0,0,-0.1566,-0.1611,-0.1635,-0.1565,-0.1558,-0.1516,-0.1514,-0.1512,-0.1402,-0.14,-0.1398,-0.1397,-0.111,-0.11,-0.109,-0.1063,0,0,-0.1059,-0.1055,0,0,0,0,0,0,0,0,-0.1568,-0.1567,-0.1577,-0.157,-0.1562,-0.1474,-0.1397,-0.1354,-0.1402,-0.1458,-0.1398,-0.1396,-0.1215,-0.1196,-0.1177,-0.1049,-0.1036,-0.1058,-0.1052,-0.1048,-0.1045,0,0,0,0,0,0,0,-0.1572,-0.157,-0.1585,-0.1576,-0.1566,-0.1485,-0.1478,-0.1388,-0.1343,-0.1453,-0.1446,-0.1437,-0.1209,-0.1187,-0.1168,-0.1032,-0.1059,-0.105,-0.1043,-0.1039,-0.0746,-0.0744,0,0,0,0,0,0,-0.1602,-0.1574,-0.1589,-0.1582,-0.1563,-0.1488,-0.148,-0.1502,-0.1347,-0.1324,-0.1438,-0.1432,-0.1205,-0.118,-0.1157,-0.1045,-0.1048,-0.1038,-0.1033,-0.0748,-0.0746,-0.0744,0,0,0,0,0,0,-0.1603,-0.1606,-0.1594,-0.1575,-0.1568,-0.1492,-0.1516,-0.15,-0.1461,-0.1338,-0.1311,-0.1414,-0.1203,-0.1172,-0.1046,-0.1035,-0.1034,-0.1025,-0.075,-0.0747,-0.0745,-0.0864,0,0,0,0,0,0,-0.1603,-0.1608,-0.1627,-0.1579,-0.157,-0.1573,-0.1517,-0.1499,-0.1461,-0.1451,-0.1308,-0.1281,-0.1199,-0.1062,-0.1036,-0.1021,-0.1017,-0.0752,-0.0749,-0.0745,-0.0862,-0.0866,-0.0869,0,0,0,0,0,-0.1603,-0.1641,-0.1629,-0.163,-0.1603,-0.1574,-0.1563,-0.1498,-0.1462,-0.1454,-0.1335,-0.1284,-0.1023,-0.1053,-0.1023,-0.1004,-0.0754,-0.0749,-0.0746,-0.0861,-0.0865,-0.0869,0,0,0,0,0,0,-0.1628,-0.1632,-0.1618,-0.1653,-0.1618,-0.1556,-0.1544,-0.1501,-0.1408,-0.1384,-0.1261,-0.1225,-0.1116,-0.1035,-0.1071,-0.0905,-0.088,-0.087,-0.0977,-0.098,-0.0983,-0.1007,-0.1009,0,0,0,0,0,-0.1651,-0.1686,-0.1656,-0.168,-0.1669,-0.1606,-0.1583,-0.1543,-0.1461,-0.1419,-0.1316,-0.1192,-0.1082,-0.1012,-0.0913,-0.082,-0.0705,-0.0784,-0.0788,-0.0792,-0.0786,-0.0571,-0.0554,-0.0731,-0.0731,-0.0731,0,0,-0.1665,-0.1672,-0.1689,-0.1688,-0.1654,-0.1656,-0.1587,-0.1561,-0.1547,-0.1399,-0.1327,-0.1206,-0.1061,-0.0959,-0.0902,-0.0885,-0.0687,-0.0786,-0.0791,-0.0783,-0.0565,-0.0547,-0.0532,-0.0728,-0.0728,-0.0729,0,0,-0.1708,-0.172,-0.1756,-0.1742,-0.1711,-0.1682,-0.1679,-0.1613,-0.1567,-0.1487,-0.137,-0.1227,-0.1084,-0.0962,-0.0885,-0.0838,-0.072,-0.0816,-0.084,-0.0632,-0.0616,-0.06,-0.0471,-0.0442,-0.0808,-0.0808,-0.0808,0,-0.1716,-0.1776,-0.1753,-0.1775,-0.1774,-0.1703,-0.1725,-0.1677,-0.1573,-0.1506,-0.1476,-0.118,-0.1081,-0.0902,-0.0903,-0.0847,-0.0733,-0.0849,-0.0638,-0.0619,-0.0601,-0.0471,-0.0438,-0.0813,-0.0813,-0.0812,-0.0812,0,-0.1779,-0.1822,-0.1838,-0.1861,-0.1851,-0.1859,-0.1807,-0.1764,-0.1696,-0.1605,-0.1417,-0.1243,-0.1053,-0.1008,-0.0954,-0.0772,-0.0738,-0.068,-0.064,-0.0591,-0.0457,-0.0421,-0.0821,-0.0819,-0.0817,-0.0816,0,0,-0.1804,-0.1875,-0.1879,-0.1914,-0.1903,-0.1903,-0.1882,-0.1814,-0.1751,-0.1602,-0.1452,-0.1275,-0.1133,-0.1035,-0.0906,-0.0741,-0.0556,-0.068,-0.0666,-0.0575,-0.0136,-0.0135,-0.0095,-0.0453,-0.0447,-0.0441,-0.011,0,-0.1854,-0.1947,-0.1957,-0.2022,-0.2062,-0.201,-0.1996,-0.191,-0.1791,-0.1622,-0.1381,-0.1198,-0.1156,-0.1037,-0.0866,-0.0602,-0.0458,-0.0654,-0.0176,-0.0163,-0.0184,-0.0051,0.001,0.031,-0.0074,-0.0068,-0.0063,0,-0.1901,-0.1969,-0.2062,-0.2119,-0.2126,-0.2144,-0.2081,-0.2048,-0.1807,-0.1688,-0.1435,-0.123,-0.0942,-0.0914,-0.0457,-0.058,-0.0395,-0.0211,-0.0191,-0.0118,-0.0091,0.0214,0.0392,0.0564,-0.0006,-0.0011,-0.0015,0,-0.1935,-0.2032,-0.2123,-0.2144,-0.2189,-0.2199,-0.2194,-0.2044,-0.198,-0.1683,-0.1535,-0.1177,-0.0927,-0.0635,-0.0302,-0.0352,0.0204,0.0202,0.0371,0.0371,0.0554,0.0559,0.0945,0.0502,0.0501,0.0501,0.05,0,-0.1988,-0.205,-0.2154,-0.2199,-0.2272,-0.2261,-0.2245,-0.2173,-0.1986,-0.1841,-0.1554,-0.1309,-0.0838,-0.0473,-0.0238,0.0193,0.0266,0.0402,0.049,0.0507,0.0503,0.0764,0.0806,0.0513,0.051,0.0508,0.0506,0,-0.1992,-0.207,-0.2175,-0.2267,-0.2297,-0.2333,-0.2332,-0.2286,-0.2115,-0.1895,-0.179,-0.1319,-0.0813,-0.0399,0.0157,0.0309,0.0819,0.0788,0.0727,0.08,0.1068,0.1097,0.1559,0.1698,0.1055,0.1058,0.106,0,-0.1998,-0.2066,-0.222,-0.2289,-0.2339,-0.2394,-0.2418,-0.2346,-0.2277,-0.1897,-0.1766,-0.1215,-0.0762,0.003,0.0447,0.0921,0.1021,0.1146,0.1054,0.1131,0.1234,0.1225,0.1307,0.1249,0.1252,0.1255,0.1257,0,-0.1995,-0.206,-0.2144,-0.2311,-0.2395,-0.2471,-0.2491,-0.2475,-0.2318,-0.2102,-0.1685,-0.1274,-0.0437,0.0245,0.0828,0.1058,0.1278,0.1212,0.1393,0.1502,0.1435,0.1592,0.0905,0.1283,0.128,0.1278,0.1277,0.1276,-0.1962,-0.2027,-0.2162,-0.2309,-0.2414,-0.2508,-0.2542,-0.2511,-0.2392,-0.2024,-0.1631,-0.0935,0.0015,0.0933,0.1177,0.1626,0.1551,0.1722,0.1776,0.1777,0.1851,0.1146,0.1542,0.1541,0.1541,0.154,0.1539,0,-0.191,-0.2008,-0.215,-0.2321,-0.2424,-0.2495,-0.2551,-0.2525,-0.2383,-0.1929,-0.1463,-0.022,0.059,0.1309,0.1977,0.2176,0.2218,0.2263,0.2316,0.2394,0.1907,0.1849,0.221,0.221,0.221,0.2209,0.2209,0.2209,-0.1885,-0.1995,-0.2097,-0.2278,-0.2389,-0.2493,-0.2524,-0.245,-0.218,-0.1454,-0.0682,0.005,0.1108,0.2091,0.2638,0.2677,0.2884,0.2834,0.2953,0.262,0.2573,0.2529,0.249,0.2979,0.298,0.3442,0.3447,0.345]}],[{"header":{"parameterUnit":"m.s-1","parameterCategory":2,"la1":30.2991,"la2":30.254,"lo1":-89.0895,"lo2":-89.0444,"dy":0.0017,"dx":0.0017,"nx":28,"ny":28,"refTime":"2024-06-24T03:00:00:Z","depth":"2","parameterNumber":2,"parameterNumberName":"U-component_of_CURRENTS"},"data":[0,0,0,0,0,0,0,0,0,0,0,0,0,0,0,0,0,0,0,0,0,0,0,0,0,0,0,0,0,0,0,0,0,0,0,0,0,0,0,0,0,0,0,0,0,0,0,0,0,0,0,0,0,0,0,0,0,0,-0.2437,-0.2437,0,-0.2478,-0.2479,-0.2479,-0.2493,-0.2493,-0.2492,-0.2492,-0.2531,-0.2532,-0.2534,0,0,0,0,0,0,0,0,0,0,0,0,0,-0.2332,-0.2334,-0.2437,-0.2437,-0.2438,-0.2478,-0.2479,-0.248,-0.2493,-0.2493,-0.2492,-0.2492,-0.2531,-0.2532,-0.2534,0,0,0,0,0,0,0,0,0,0,0,0,0,-0.2378,-0.2335,-0.2437,-0.2447,-0.2449,-0.2478,-0.2479,-0.248,-0.2493,-0.2493,-0.2492,-0.2492,-0.253,-0.2532,-0.2534,-0.2559,0,0,-0.2541,-0.2542,0,0,0,0,0,0,0,0,-0.2375,-0.2382,-0.2446,-0.2447,-0.2448,-0.2478,-0.2456,-0.2505,-0.2493,-0.2479,-0.2492,-0.2491,-0.2512,-0.2515,-0.2528,-0.2561,-0.2563,-0.2541,-0.2542,-0.2543,-0.2544,0,0,0,0,0,0,0,-0.2372,-0.238,-0.2456,-0.2446,-0.2447,-0.2436,-0.2443,-0.2465,-0.25,-0.248,-0.2481,-0.2481,-0.2513,-0.2526,-0.2529,-0.2563,-0.2541,-0.2543,-0.2544,-0.2545,-0.2633,-0.2634,0,0,0,0,0,0,-0.2365,-0.2378,-0.2454,-0.2457,-0.2407,-0.2439,-0.2446,-0.2471,-0.25,-0.2503,-0.2482,-0.2482,-0.2523,-0.2527,-0.253,-0.2596,-0.2543,-0.2545,-0.2546,-0.2632,-0.2633,-0.2634,0,0,0,0,0,0,-0.2363,-0.2373,-0.2453,-0.2414,-0.2423,-0.2441,-0.2469,-0.2472,-0.2496,-0.2501,-0.2504,-0.2503,-0.2522,-0.2527,-0.2564,-0.2596,-0.2546,-0.2548,-0.2631,-0.2632,-0.2634,-0.2705,0,0,0,0,0,0,-0.2361,-0.2373,-0.2386,-0.2415,-0.2425,-0.2486,-0.2469,-0.2473,-0.2495,-0.2496,-0.252,-0.2523,-0.2522,-0.2561,-0.2566,-0.2598,-0.255,-0.2629,-0.2631,-0.2633,-0.2701,-0.2708,-0.2715,0,0,0,0,0,-0.2357,-0.2368,-0.2388,-0.2396,-0.2445,-0.2487,-0.2493,-0.2503,-0.2497,-0.2521,-0.2532,-0.2522,-0.2577,-0.2564,-0.257,-0.2603,-0.2628,-0.2631,-0.2633,-0.2698,-0.2707,-0.2715,0,0,0,0,0,0,-0.2326,-0.2371,-0.2393,-0.2418,-0.2461,-0.2489,-0.2501,-0.2514,-0.2542,-0.2539,-0.2544,-0.2548,-0.2591,-0.2586,-0.2572,-0.2631,-0.2598,-0.2602,-0.2645,-0.2654,-0.2661,-0.2653,-0.2551,0,0,0,0,0,-0.2329,-0.2354,-0.2402,-0.2427,-0.245,-0.2483,-0.2498,-0.2513,-0.2539,-0.2551,-0.2569,-0.2582,-0.2605,-0.262,-0.2637,-0.2676,-0.2644,-0.2697,-0.2704,-0.271,-0.2707,-0.2686,-0.2691,-0.2642,-0.2642,-0.2642,0,0,-0.2334,-0.2351,-0.2373,-0.2423,-0.2454,-0.25,-0.2493,-0.2526,-0.2566,-0.2551,-0.2606,-0.2612,-0.2621,-0.2664,-0.2682,-0.2664,-0.2707,-0.2713,-0.2719,-0.2711,-0.2689,-0.2694,-0.2698,-0.2644,-0.2644,-0.2643,0,0,-0.2332,-0.2369,-0.2389,-0.2434,-0.2478,-0.2506,-0.2523,-0.257,-0.2596,-0.2653,-0.2644,-0.2669,-0.2714,-0.2723,-0.2732,-0.2788,-0.2745,-0.2792,-0.2825,-0.2806,-0.281,-0.2812,-0.2775,-0.2774,-0.2795,-0.2795,-0.2795,0,-0.2333,-0.2368,-0.2403,-0.2438,-0.2475,-0.2516,-0.2561,-0.2603,-0.2655,-0.2678,-0.268,-0.2732,-0.2745,-0.2782,-0.2801,-0.2806,-0.2774,-0.2796,-0.2815,-0.2817,-0.2818,-0.278,-0.2777,-0.2798,-0.2798,-0.2798,-0.2797,0,-0.2342,-0.2393,-0.2411,-0.2478,-0.2526,-0.257,-0.2639,-0.2685,-0.2719,-0.2751,-0.2803,-0.2818,-0.2843,-0.2855,-0.2852,-0.2871,-0.2838,-0.2826,-0.2793,-0.2827,-0.2784,-0.2781,-0.2804,-0.2802,-0.2801,-0.28,0,0,-0.2305,-0.2399,-0.2408,-0.2455,-0.2552,-0.2587,-0.2673,-0.2748,-0.2784,-0.2841,-0.2879,-0.293,-0.2923,-0.2931,-0.2924,-0.2911,-0.2904,-0.2875,-0.2872,-0.2837,-0.2841,-0.2738,-0.2723,-0.289,-0.289,-0.289,-0.2806,0,-0.231,-0.2358,-0.2417,-0.2507,-0.2559,-0.2644,-0.2721,-0.2794,-0.2848,-0.2894,-0.292,-0.2951,-0.2958,-0.2958,-0.2958,-0.2912,-0.2897,-0.2926,-0.2814,-0.281,-0.2713,-0.2717,-0.2508,-0.2408,-0.2802,-0.2801,-0.2801,0,-0.2311,-0.2341,-0.2402,-0.253,-0.2561,-0.2618,-0.2726,-0.2803,-0.289,-0.2929,-0.2969,-0.2979,-0.2992,-0.2979,-0.2938,-0.2952,-0.2906,-0.2867,-0.2863,-0.2736,-0.2699,-0.2437,-0.2386,-0.2794,-0.2795,-0.2795,-0.2796,0,-0.2241,-0.235,-0.2382,-0.2427,-0.2561,-0.2608,-0.2688,-0.2798,-0.285,-0.2931,-0.2941,-0.2985,-0.2971,-0.2949,-0.2894,-0.2911,-0.2813,-0.2828,-0.2692,-0.2684,-0.2467,-0.244,-0.2788,-0.2788,-0.2788,-0.2788,-0.2789,0,-0.2217,-0.2262,-0.2347,-0.2367,-0.2424,-0.2558,-0.2627,-0.2714,-0.2814,-0.2839,-0.2933,-0.2926,-0.2956,-0.2913,-0.2882,-0.2762,-0.2808,-0.2686,-0.2653,-0.2486,-0.2462,-0.2769,-0.2768,-0.2785,-0.2786,-0.2787,-0.2787,0,-0.2145,-0.2199,-0.225,-0.2357,-0.239,-0.243,-0.2571,-0.2608,-0.2729,-0.2753,-0.277,-0.2856,-0.2805,-0.2801,-0.2742,-0.2709,-0.2629,-0.2573,-0.2368,-0.2313,-0.252,-0.2524,-0.2426,-0.2421,-0.2418,-0.2415,-0.2412,0,-0.21,-0.2113,-0.2195,-0.2207,-0.2249,-0.2332,-0.2375,-0.253,-0.2557,-0.2684,-0.2653,-0.2667,-0.2624,-0.2526,-0.2458,-0.2367,-0.2482,-0.2146,-0.2154,-0.2503,-0.2482,-0.2492,-0.25,-0.1894,-0.1887,-0.1882,-0.1878,0,-0.202,-0.2048,-0.2072,-0.2087,-0.2112,-0.2153,-0.2224,-0.2225,-0.2378,-0.2403,-0.2419,-0.2414,-0.2349,-0.2185,-0.2099,-0.2028,-0.2155,-0.2032,-0.2422,-0.2028,-0.1997,-0.1979,-0.2005,-0.1829,-0.1834,-0.1838,-0.184,-0.1842,-0.1946,-0.1936,-0.1957,-0.1962,-0.1979,-0.1954,-0.1933,-0.196,-0.1963,-0.1958,-0.2104,-0.2035,-0.207,-0.182,-0.173,-0.1658,-0.181,-0.1752,-0.1771,-0.1795,-0.1758,-0.1723,-0.1496,-0.1498,-0.1501,-0.1503,-0.1505,0,-0.1852,-0.185,-0.1844,-0.1827,-0.1778,-0.184,-0.181,-0.1741,-0.1635,-0.1643,-0.1641,-0.1531,-0.1427,-0.1461,-0.127,-0.1257,-0.1261,-0.1215,-0.123,-0.1276,-0.1318,-0.1261,-0.0864,-0.0863,-0.0862,-0.0861,0,0,-0.18,-0.1753,-0.174,-0.1622,-0.1614,-0.1491,-0.1433,-0.1312,-0.1258,-0.1131,-0.1102,-0.1258,-0.1358,-0.1107,-0.1061,-0.0925,-0.1084,-0.0865,-0.1366,-0.1422,-0.1462,-0.1601,-0.1561,0,0,0,0,0]},{"header":{"parameterUnit":"m.s-1","parameterCategory":2,"la1":30.2991,"la2":30.254,"lo1":-89.0895,"lo2":-89.0444,"dy":0.0017,"dx":0.0017,"nx":28,"ny":28,"refTime":"2024-06-24T03:00:00:Z","depth":"2","parameterNumber":3,"parameterNumberName":"V-component_of_CURRENTS"},"data":[0,0,0,0,0,0,0,0,0,0,0,0,0,0,0,0,0,0,0,0,0,0,0,0,0,0,0,0,0,0,0,0,0,0,0,0,0,0,0,0,0,0,0,0,0,0,0,0,0,0,0,0,0,0,0,0,0,0,0.011,0.0111,0,0.0216,0.0217,0.0218,0.0293,0.0294,0.0294,0.0295,0.0436,0.0439,0.0442,0,0,0,0,0,0,0,0,0,0,0,0,0,0.0059,0.0059,0.011,0.0111,0.0113,0.0215,0.0217,0.0219,0.0293,0.0294,0.0294,0.0295,0.0435,0.0439,0.0443,0,0,0,0,0,0,0,0,0,0,0,0,0,0.0115,0.0059,0.011,0.0161,0.0167,0.0215,0.0217,0.0219,0.0293,0.0294,0.0295,0.0295,0.0434,0.0438,0.0443,0.046,0,0,0.0459,0.0461,0,0,0,0,0,0,0,0,0.0112,0.0117,0.0152,0.0158,0.0164,0.0241,0.0251,0.0301,0.0293,0.0247,0.0295,0.0296,0.0372,0.0382,0.0402,0.0467,0.0473,0.0459,0.0462,0.0464,0.0466,0,0,0,0,0,0,0,0.0108,0.0114,0.0153,0.0154,0.0161,0.0208,0.0216,0.0261,0.0306,0.0251,0.0256,0.0265,0.0376,0.0397,0.0406,0.0475,0.0459,0.0463,0.0466,0.0468,0.0545,0.0544,0,0,0,0,0,0,0.0086,0.0109,0.015,0.0156,0.0137,0.0208,0.0217,0.0217,0.0305,0.0319,0.0264,0.0268,0.0389,0.04,0.0412,0.0426,0.0464,0.0469,0.0472,0.0546,0.0545,0.0544,0,0,0,0,0,0,0.0085,0.0089,0.0146,0.0135,0.0145,0.0207,0.0207,0.0218,0.0238,0.0315,0.0329,0.0272,0.039,0.0405,0.044,0.0432,0.0471,0.0476,0.0547,0.0545,0.0544,0.0461,0,0,0,0,0,0,0.0083,0.0087,0.0079,0.0133,0.0145,0.0161,0.0206,0.022,0.0242,0.0248,0.0326,0.034,0.0391,0.0432,0.0445,0.044,0.048,0.0548,0.0546,0.0545,0.0465,0.0457,0.045,0,0,0,0,0,0.008,0.0065,0.0078,0.0083,0.0132,0.016,0.017,0.0219,0.0241,0.0241,0.0292,0.0338,0.043,0.0436,0.0451,0.0447,0.0549,0.0547,0.0545,0.0468,0.0459,0.045,0,0,0,0,0,0,0.0043,0.0073,0.0088,0.0083,0.0112,0.0172,0.0175,0.0209,0.025,0.0255,0.033,0.0347,0.0372,0.0416,0.0421,0.0461,0.0495,0.0496,0.0432,0.0424,0.0416,0.0406,0.0484,0,0,0,0,0,0.0027,0.0017,0.0061,0.0053,0.0063,0.0116,0.0134,0.0165,0.0209,0.0228,0.0281,0.0333,0.0375,0.0404,0.0443,0.0471,0.0518,0.0475,0.0468,0.0461,0.0462,0.0517,0.0515,0.0536,0.0537,0.0537,0,0,0.0008,0.0023,0.0018,0.0043,0.0068,0.0071,0.0128,0.0144,0.0152,0.0236,0.0258,0.0306,0.0373,0.0399,0.0415,0.0438,0.0479,0.0459,0.0453,0.0457,0.0515,0.0513,0.0512,0.0535,0.0535,0.0536,0,0,-0.0039,-0.0022,-0.0047,-0.0032,-0.0004,0.0032,0.0031,0.0082,0.011,0.0136,0.0195,0.0241,0.03,0.0354,0.0388,0.0363,0.043,0.0368,0.0336,0.0388,0.0388,0.0387,0.0439,0.0444,0.0373,0.0373,0.0373,0,-0.0062,-0.0088,-0.0048,-0.0067,-0.0063,0.0006,-0.0015,0.0026,0.0083,0.0106,0.0126,0.0225,0.0281,0.0334,0.0324,0.0349,0.0385,0.0365,0.038,0.038,0.0382,0.0435,0.0442,0.0368,0.0369,0.0369,0.037,0,-0.0122,-0.0146,-0.0161,-0.0164,-0.015,-0.0159,-0.0103,-0.008,-0.0038,0.0013,0.0064,0.0145,0.0208,0.023,0.0273,0.0309,0.0333,0.0357,0.0403,0.0375,0.0432,0.0441,0.0362,0.0364,0.0365,0.0366,0,0,-0.0171,-0.02,-0.0208,-0.0238,-0.0206,-0.0206,-0.0187,-0.0146,-0.0129,-0.006,-0.0028,0.0054,0.0111,0.0153,0.0219,0.0273,0.0314,0.0311,0.0316,0.0363,0.0427,0.0462,0.0476,0.0337,0.0338,0.0339,0.0461,0,-0.0235,-0.0305,-0.029,-0.035,-0.0382,-0.0322,-0.0312,-0.026,-0.0195,-0.0144,-0.0035,0.0016,0.008,0.011,0.0173,0.0279,0.0333,0.0278,0.0447,0.0452,0.0488,0.0486,0.0449,0.0557,0.047,0.0472,0.0473,0,-0.0301,-0.0342,-0.0416,-0.0458,-0.0464,-0.0474,-0.0442,-0.0428,-0.032,-0.0267,-0.0176,-0.0082,0.0023,0.0069,0.0245,0.0204,0.0302,0.0386,0.0394,0.0464,0.0504,0.0573,0.0577,0.0488,0.0487,0.0486,0.0485,0,-0.0366,-0.0435,-0.0501,-0.0515,-0.0533,-0.0544,-0.0543,-0.0463,-0.0446,-0.0338,-0.0293,-0.0155,-0.0072,0.0059,0.0251,0.0241,0.0444,0.0456,0.0584,0.0588,0.0611,0.0616,0.0569,0.0569,0.0569,0.0569,0.0568,0,-0.0439,-0.0498,-0.0542,-0.058,-0.0649,-0.063,-0.0661,-0.0621,-0.0553,-0.0515,-0.0367,-0.0279,-0.0072,0.0087,0.0232,0.0445,0.0436,0.0583,0.0624,0.058,0.058,0.0563,0.0561,0.0573,0.0572,0.0571,0.0571,0,-0.0494,-0.0526,-0.0617,-0.0668,-0.0686,-0.0736,-0.0759,-0.0765,-0.0685,-0.0624,-0.059,-0.0368,-0.0149,0.0065,0.0308,0.0433,0.0618,0.0693,0.063,0.0661,0.0727,0.0719,0.0837,0.0839,0.0841,0.0843,0.0844,0,-0.0527,-0.0578,-0.0685,-0.0744,-0.0772,-0.0836,-0.0868,-0.0836,-0.0826,-0.0657,-0.0624,-0.0386,-0.0183,0.0187,0.044,0.0701,0.0695,0.0803,0.078,0.0728,0.0756,0.0744,0.0734,0.0778,0.0779,0.0779,0.078,0,-0.0586,-0.0626,-0.0698,-0.0816,-0.0885,-0.0962,-0.0999,-0.1004,-0.0926,-0.0828,-0.0628,-0.0446,-0.006,0.0259,0.0583,0.0718,0.0753,0.0824,0.0801,0.0711,0.0681,0.0706,0.0696,0.0785,0.0785,0.0784,0.0784,0.0784,-0.0622,-0.0689,-0.0783,-0.089,-0.0978,-0.1049,-0.1084,-0.1068,-0.1018,-0.0823,-0.0653,-0.0333,-0.0035,0.0465,0.0677,0.0863,0.0859,0.0892,0.0887,0.0881,0.0847,0.0822,0.0947,0.0947,0.0947,0.0948,0.0948,0,-0.0667,-0.0742,-0.0848,-0.0973,-0.1063,-0.1096,-0.1139,-0.1116,-0.1025,-0.0785,-0.0562,-0.0187,0.0161,0.0462,0.0781,0.0957,0.0919,0.0957,0.088,0.0874,0.0869,0.0831,0.0928,0.0929,0.0929,0.093,0,0,-0.0696,-0.08,-0.0855,-0.1007,-0.1089,-0.1158,-0.1172,-0.11,-0.094,-0.0673,-0.0413,-0.0124,0.0234,0.0452,0.066,0.082,0.0793,0.0813,0.0809,0.0686,0.0679,0.081,0.0743,0,0,0,0,0]}],[{"header":{"parameterUnit":"m.s-1","parameterCategory":2,"la1":30.2991,"la2":30.254,"lo1":-89.0895,"lo2":-89.0444,"dy":0.0017,"dx":0.0017,"nx":28,"ny":28,"refTime":"2024-06-24T03:00:00:Z","depth":"4","parameterNumber":2,"parameterNumberName":"U-component_of_CURRENTS"},"data":[0,0,0,0,0,0,0,0,0,0,0,0,0,0,0,0,0,0,0,0,0,0,0,0,0,0,0,0,0,0,0,0,0,0,0,0,0,0,0,0,0,0,0,0,0,0,0,0,0,0,0,0,0,0,0,0,0,0,-0.1619,-0.162,0,-0.1724,-0.1725,-0.1726,-0.1778,-0.1778,-0.1778,-0.1779,-0.1871,-0.1874,-0.1876,0,0,0,0,0,0,0,0,0,0,0,0,0,-0.1504,-0.1506,-0.1619,-0.162,-0.1622,-0.1724,-0.1725,-0.1727,-0.1778,-0.1778,-0.1779,-0.1779,-0.1871,-0.1873,-0.1876,0,0,0,0,0,0,0,0,0,0,0,0,0,-0.1574,-0.1506,-0.1618,-0.1662,-0.1667,-0.1724,-0.1725,-0.1727,-0.1778,-0.1778,-0.1779,-0.1779,-0.187,-0.1873,-0.1876,-0.1891,0,0,-0.1887,-0.1888,0,0,0,0,0,0,0,0,-0.157,-0.1578,-0.1654,-0.1659,-0.1664,-0.174,-0.1719,-0.1782,-0.1778,-0.1733,-0.1779,-0.1779,-0.1828,-0.1835,-0.1851,-0.1896,-0.19,-0.1887,-0.1889,-0.1891,-0.1892,0,0,0,0,0,0,0,-0.1565,-0.1574,-0.1658,-0.1655,-0.1662,-0.169,-0.17,-0.1731,-0.1775,-0.1737,-0.1742,-0.1757,-0.183,-0.1847,-0.1853,-0.1901,-0.1887,-0.189,-0.1892,-0.1894,-0.2052,-0.2054,0,0,0,0,0,0,-0.1554,-0.1569,-0.1655,-0.1661,-0.162,-0.1692,-0.1703,-0.1714,-0.1775,-0.1786,-0.1757,-0.1759,-0.1841,-0.1849,-0.1857,-0.196,-0.1891,-0.1894,-0.1896,-0.205,-0.2052,-0.2055,0,0,0,0,0,0,-0.1551,-0.1561,-0.1651,-0.162,-0.1633,-0.1694,-0.1706,-0.1716,-0.1763,-0.1791,-0.1801,-0.1798,-0.1842,-0.1852,-0.1918,-0.196,-0.1895,-0.1899,-0.2047,-0.2051,-0.2054,-0.2113,0,0,0,0,0,0,-0.1547,-0.1559,-0.1578,-0.1619,-0.1635,-0.1707,-0.1706,-0.1718,-0.1772,-0.1777,-0.1829,-0.1836,-0.1843,-0.1913,-0.1922,-0.1964,-0.1901,-0.2045,-0.2049,-0.2053,-0.2108,-0.2118,-0.2126,0,0,0,0,0,-0.1543,-0.1567,-0.1578,-0.159,-0.1654,-0.1708,-0.172,-0.1761,-0.1774,-0.1804,-0.1842,-0.1836,-0.1945,-0.1918,-0.1927,-0.1971,-0.2043,-0.2048,-0.2052,-0.2104,-0.2116,-0.2126,0,0,0,0,0,0,-0.153,-0.1576,-0.1589,-0.1626,-0.1674,-0.1719,-0.1756,-0.178,-0.1835,-0.1848,-0.1865,-0.1876,-0.1949,-0.1955,-0.1925,-0.203,-0.1992,-0.1999,-0.2029,-0.204,-0.2048,-0.2032,-0.1904,0,0,0,0,0,-0.1534,-0.1563,-0.161,-0.1643,-0.167,-0.1718,-0.1751,-0.1781,-0.1827,-0.1853,-0.189,-0.1931,-0.1972,-0.2002,-0.2036,-0.2096,-0.2071,-0.213,-0.2139,-0.2147,-0.2141,-0.2144,-0.2151,-0.2071,-0.2071,-0.2071,0,0,-0.1538,-0.1567,-0.1586,-0.1643,-0.1683,-0.1735,-0.1739,-0.1801,-0.1851,-0.1854,-0.194,-0.1966,-0.1995,-0.2062,-0.2095,-0.2076,-0.2158,-0.2153,-0.2159,-0.2149,-0.2149,-0.2157,-0.2163,-0.2074,-0.2073,-0.2073,0,0,-0.1556,-0.159,-0.1621,-0.1667,-0.1734,-0.1768,-0.1792,-0.1859,-0.1899,-0.1976,-0.199,-0.2041,-0.2113,-0.2137,-0.2157,-0.2237,-0.2204,-0.2257,-0.2291,-0.2295,-0.2301,-0.2306,-0.228,-0.2282,-0.2262,-0.2262,-0.2263,0,-0.1563,-0.1606,-0.1642,-0.1689,-0.1734,-0.1786,-0.1839,-0.189,-0.1972,-0.2005,-0.2015,-0.2118,-0.2145,-0.221,-0.2241,-0.2256,-0.224,-0.2247,-0.2304,-0.2308,-0.2312,-0.2284,-0.2285,-0.2266,-0.2265,-0.2265,-0.2265,0,-0.1596,-0.1651,-0.1679,-0.1752,-0.1804,-0.1863,-0.1932,-0.1996,-0.2048,-0.2086,-0.217,-0.2208,-0.2259,-0.2286,-0.2291,-0.2343,-0.2316,-0.2311,-0.2269,-0.2323,-0.2291,-0.2291,-0.2271,-0.227,-0.2269,-0.2268,0,0,-0.1567,-0.1679,-0.1695,-0.1741,-0.1845,-0.1887,-0.1982,-0.2065,-0.2119,-0.2195,-0.2251,-0.233,-0.2337,-0.2359,-0.2374,-0.2386,-0.2403,-0.2365,-0.2364,-0.2325,-0.239,-0.2218,-0.2201,-0.2408,-0.2408,-0.2409,-0.2354,0,-0.1589,-0.1674,-0.1732,-0.1832,-0.1884,-0.1967,-0.2045,-0.2127,-0.2193,-0.2261,-0.2304,-0.2363,-0.237,-0.2396,-0.2412,-0.241,-0.2408,-0.2417,-0.2355,-0.2353,-0.2182,-0.2198,-0.2411,-0.2354,-0.2354,-0.2354,-0.2354,0,-0.1604,-0.166,-0.1748,-0.187,-0.1901,-0.197,-0.2089,-0.2162,-0.2261,-0.2312,-0.2371,-0.2399,-0.2446,-0.2434,-0.2445,-0.2451,-0.2423,-0.241,-0.2407,-0.2221,-0.2181,-0.2292,-0.2354,-0.2354,-0.2354,-0.2354,-0.2354,0,-0.1547,-0.1678,-0.1744,-0.1788,-0.1924,-0.1985,-0.206,-0.2172,-0.2224,-0.2331,-0.2367,-0.2431,-0.2453,-0.2451,-0.2432,-0.2444,-0.241,-0.242,-0.2234,-0.2221,-0.2366,-0.2361,-0.2405,-0.2405,-0.2405,-0.2405,-0.2405,0,-0.1534,-0.1597,-0.1728,-0.1761,-0.1842,-0.1953,-0.2037,-0.2126,-0.2227,-0.2261,-0.2371,-0.2386,-0.2458,-0.245,-0.2431,-0.2314,-0.2406,-0.2223,-0.2192,-0.2393,-0.2392,-0.2365,-0.2361,-0.2403,-0.2403,-0.2404,-0.2404,0,-0.146,-0.155,-0.163,-0.1771,-0.1814,-0.1866,-0.1999,-0.2044,-0.2168,-0.2213,-0.2243,-0.2348,-0.2333,-0.2363,-0.2349,-0.2279,-0.2212,-0.2145,-0.2336,-0.232,-0.2022,-0.2023,-0.1932,-0.1925,-0.192,-0.1915,-0.1911,0,-0.1427,-0.1461,-0.1598,-0.1628,-0.1694,-0.1786,-0.1835,-0.1985,-0.2016,-0.2153,-0.214,-0.2191,-0.2232,-0.2069,-0.2131,-0.2065,-0.2043,-0.2001,-0.203,-0.1993,-0.1973,-0.1982,-0.199,-0.1902,-0.1901,-0.1899,-0.1898,0,-0.1352,-0.1412,-0.1464,-0.152,-0.1578,-0.1631,-0.171,-0.1719,-0.1864,-0.1998,-0.1976,-0.1974,-0.1945,-0.1937,-0.1893,-0.1855,-0.2034,-0.1943,-0.1955,-0.1982,-0.1956,-0.1944,-0.1958,-0.1878,-0.1881,-0.1883,-0.1884,0,-0.129,-0.13,-0.1364,-0.1398,-0.1453,-0.1447,-0.1516,-0.1546,-0.1599,-0.176,-0.1737,-0.1808,-0.1904,-0.1822,-0.1783,-0.1729,-0.1711,-0.1671,-0.1697,-0.1719,-0.1677,-0.1615,-0.1387,0,0,0,0,0,-0.1223,-0.1216,-0.1236,-0.1259,-0.1297,-0.133,-0.1415,-0.1487,-0.1627,-0.1553,-0.1644,-0.1612,-0.1579,-0.162,-0.1517,-0.1678,-0.1713,-0.1552,-0.1679,-0.1771,-0.1793,-0.1764,0,0,0,0,0,0,-0.1176,-0.1197,-0.1194,-0.1122,-0.111,-0.1136,-0.1185,-0.1281,-0.1251,-0.1404,-0.1383,-0.1508,-0.1486,-0.1603,-0.1483,-0.1492,-0.1536,-0.1605,-0.16,-0.1758,-0.1779,-0.1797,-0.1774,0,0,0,0,0]},{"header":{"parameterUnit":"m.s-1","parameterCategory":2,"la1":30.2991,"la2":30.254,"lo1":-89.0895,"lo2":-89.0444,"dy":0.0017,"dx":0.0017,"nx":28,"ny":28,"refTime":"2024-06-24T03:00:00:Z","depth":"4","parameterNumber":3,"parameterNumberName":"V-component_of_CURRENTS"},"data":[0,0,0,0,0,0,0,0,0,0,0,0,0,0,0,0,0,0,0,0,0,0,0,0,0,0,0,0,0,0,0,0,0,0,0,0,0,0,0,0,0,0,0,0,0,0,0,0,0,0,0,0,0,0,0,0,0,0,0.0096,0.0096,0,0.0168,0.0169,0.017,0.0226,0.0226,0.0227,0.0227,0.0338,0.034,0.0343,0,0,0,0,0,0,0,0,0,0,0,0,0,0.0063,0.0063,0.0095,0.0096,0.0097,0.0168,0.0169,0.017,0.0226,0.0226,0.0227,0.0227,0.0337,0.034,0.0343,0,0,0,0,0,0,0,0,0,0,0,0,0,0.0102,0.0063,0.0095,0.0132,0.0136,0.0168,0.0169,0.0171,0.0226,0.0226,0.0227,0.0227,0.0336,0.034,0.0343,0.0357,0,0,0.0355,0.0357,0,0,0,0,0,0,0,0,0.01,0.0104,0.0126,0.0129,0.0134,0.0187,0.0198,0.0234,0.0226,0.0194,0.0227,0.0228,0.0289,0.0297,0.0312,0.0362,0.0367,0.0356,0.0358,0.036,0.0361,0,0,0,0,0,0,0,0.0097,0.0101,0.0126,0.0126,0.0131,0.0164,0.017,0.0206,0.024,0.0197,0.02,0.0205,0.0292,0.0308,0.0315,0.0369,0.0356,0.0359,0.0362,0.0363,0.0444,0.0444,0,0,0,0,0,0,0.0081,0.0098,0.0124,0.0128,0.0116,0.0164,0.0171,0.0171,0.0239,0.0249,0.0205,0.0207,0.0301,0.031,0.0319,0.0343,0.036,0.0364,0.0366,0.0445,0.0444,0.0444,0,0,0,0,0,0,0.0079,0.0082,0.0121,0.0114,0.0121,0.0163,0.0164,0.0172,0.0189,0.0244,0.0255,0.0213,0.0301,0.0313,0.035,0.0347,0.0365,0.0369,0.0445,0.0445,0.0444,0.0388,0,0,0,0,0,0,0.0078,0.0081,0.0077,0.0112,0.012,0.0133,0.0163,0.0173,0.019,0.0195,0.0255,0.0266,0.0303,0.0343,0.0353,0.0353,0.0372,0.0445,0.0445,0.0444,0.0391,0.0386,0.0383,0,0,0,0,0,0.0077,0.0066,0.0076,0.0079,0.0112,0.0133,0.014,0.0174,0.019,0.0193,0.0235,0.0264,0.0348,0.0346,0.0358,0.0359,0.0445,0.0445,0.0444,0.0392,0.0387,0.0383,0,0,0,0,0,0,0.0053,0.0072,0.0083,0.008,0.0101,0.0141,0.0144,0.0169,0.0205,0.0209,0.0264,0.0278,0.0307,0.034,0.0336,0.0381,0.04,0.0402,0.0357,0.0352,0.0348,0.0334,0.0375,0,0,0,0,0,0.0043,0.0036,0.0066,0.0061,0.0068,0.0105,0.0118,0.014,0.0175,0.0191,0.0233,0.0277,0.0314,0.0338,0.0372,0.0399,0.0429,0.0407,0.0403,0.0399,0.0395,0.0434,0.0433,0.0443,0.0443,0.0443,0,0,0.0032,0.004,0.0038,0.0055,0.0073,0.0074,0.0115,0.0126,0.0135,0.0197,0.022,0.0262,0.0316,0.0345,0.0361,0.0374,0.0412,0.0399,0.0395,0.0393,0.0433,0.0433,0.0432,0.0442,0.0443,0.0443,0,0,-0.0001,0.0013,-0.0005,0.0006,0.0024,0.005,0.005,0.0087,0.0111,0.0137,0.0184,0.0226,0.0278,0.0322,0.035,0.0346,0.0385,0.0352,0.0328,0.0366,0.0365,0.0365,0.0399,0.0403,0.0356,0.0355,0.0355,0,-0.0014,-0.0035,-0.0006,-0.002,-0.0019,0.0033,0.0017,0.005,0.0096,0.0115,0.0134,0.022,0.0268,0.0314,0.0314,0.0337,0.036,0.0341,0.036,0.0361,0.0362,0.0397,0.0401,0.0353,0.0353,0.0353,0.0354,0,-0.0058,-0.0076,-0.0087,-0.009,-0.0079,-0.0086,-0.0043,-0.0023,0.0012,0.0051,0.0099,0.0169,0.0221,0.0245,0.0281,0.0313,0.0327,0.0345,0.0369,0.0357,0.0395,0.0401,0.0349,0.035,0.0351,0.0351,0,0,-0.0092,-0.0115,-0.0122,-0.0146,-0.0121,-0.0123,-0.0103,-0.0073,-0.0062,0.0001,0.0023,0.0104,0.015,0.0184,0.024,0.0283,0.0315,0.0311,0.0315,0.034,0.0392,0.0368,0.0372,0.0333,0.0333,0.0334,0.0415,0,-0.014,-0.0197,-0.0185,-0.0233,-0.0258,-0.0212,-0.0201,-0.016,-0.0109,-0.007,0.0022,0.0064,0.0125,0.0149,0.0203,0.0284,0.0327,0.0291,0.0405,0.0408,0.0384,0.0377,0.0336,0.042,0.0421,0.0422,0.0423,0,-0.019,-0.0226,-0.0285,-0.0319,-0.0325,-0.0335,-0.0315,-0.0299,-0.0216,-0.0174,-0.01,-0.0025,0.0061,0.0106,0.0245,0.0215,0.0295,0.0361,0.0366,0.0366,0.0394,0.0437,0.0434,0.0433,0.0432,0.0431,0.0431,0,-0.0241,-0.0298,-0.0355,-0.0366,-0.0382,-0.0395,-0.0394,-0.0331,-0.032,-0.0237,-0.0209,-0.0094,-0.0032,0.0076,0.0233,0.0231,0.038,0.0397,0.0454,0.0454,0.0477,0.0476,0.0486,0.0485,0.0485,0.0485,0.0485,0,-0.0296,-0.0346,-0.0391,-0.0423,-0.0487,-0.0466,-0.0498,-0.0467,-0.0417,-0.0396,-0.0271,-0.0213,-0.0038,0.0083,0.0207,0.0349,0.0365,0.0445,0.047,0.0451,0.0447,0.0481,0.048,0.0488,0.0487,0.0487,0.0486,0,-0.0336,-0.0367,-0.0445,-0.0495,-0.0516,-0.0559,-0.0586,-0.0597,-0.0535,-0.0501,-0.0477,-0.0305,-0.0141,0.0035,0.023,0.0313,0.0449,0.0498,0.0464,0.0487,0.0501,0.0496,0.0549,0.0549,0.0549,0.0549,0.0549,0,-0.0361,-0.0404,-0.0504,-0.0556,-0.0585,-0.0645,-0.0678,-0.0659,-0.0659,-0.0543,-0.0527,-0.0354,-0.0222,0.0043,0.0217,0.0435,0.0471,0.0524,0.0511,0.0487,0.0507,0.0502,0.0497,0.0548,0.0548,0.0548,0.0548,0,-0.0405,-0.0442,-0.0504,-0.0611,-0.068,-0.0754,-0.0795,-0.0805,-0.0754,-0.0706,-0.0545,-0.0371,-0.018,0.0042,0.0215,0.0374,0.0472,0.0522,0.0523,0.0512,0.0486,0.0505,0.0501,0.0547,0.0547,0.0548,0.0548,0,-0.0433,-0.0488,-0.0568,-0.066,-0.0752,-0.082,-0.0846,-0.0824,-0.0813,-0.0677,-0.0621,-0.0376,-0.0229,0.0012,0.0173,0.032,0.0351,0.0379,0.0388,0.0391,0.0318,0.0261,0.0269,0,0,0,0,0,-0.0455,-0.0516,-0.0607,-0.0711,-0.0797,-0.0844,-0.0899,-0.0903,-0.0858,-0.0756,-0.0683,-0.049,-0.02,-0.0059,0.0083,0.0138,0.0347,0.0303,0.0374,0.0543,0.0544,0.0483,0,0,0,0,0,0,-0.0474,-0.0558,-0.0609,-0.0724,-0.0789,-0.0881,-0.0916,-0.0892,-0.0827,-0.0743,-0.0581,-0.0473,-0.0194,-0.0268,0.009,0.0136,0.0192,0.0448,0.045,0.0543,0.0544,0.0544,0.0482,0,0,0,0,0]}]]